TimeMDT,TemperatureF,Dew PointF,Humidity,Sea Level PressureIn,VisibilityMPH,Wind Direction,Wind SpeedMPH,Gust SpeedMPH,PrecipitationIn,Events,Conditions,WindDirDegrees,DateUTC
12:53 AM,55.0,52.0,89,29.94,10.0,Calm,Calm,-,N/A,,Clear,0,2013-08-28 06:53:00
1:53 AM,54.0,51.1,90,29.94,10.0,Calm,Calm,-,N/A,,Clear,0,2013-08-28 07:53:00
2:53 AM,53.1,50.0,89,29.94,10.0,Calm,Calm,-,N/A,,Clear,0,2013-08-28 08:53:00
3:53 AM,51.1,50.0,96,29.93,9.0,Calm,Calm,-,N/A,,Clear,0,2013-08-28 09:53:00
4:53 AM,50.0,48.9,96,29.95,9.0,Calm,Calm,-,N/A,,Clear,0,2013-08-28 10:53:00
5:53 AM,48.0,46.9,96,29.99,5.0,Calm,Calm,-,N/A,,Clear,0,2013-08-28 11:53:00
6:33 AM,50.0,48.2,94,30.29,1.5,Calm,Calm,-,N/A,,Clear,0,2013-08-28 12:33:00
6:44 AM,48.2,48.2,100,30.29,3.0,Calm,Calm,-,N/A,,Clear,0,2013-08-28 12:44:00
6:53 AM,48.9,48.0,97,30.03,2.5,Calm,Calm,-,N/A,,Clear,0,2013-08-28 12:53:00
7:05 AM,50.0,48.2,94,30.30,6.0,Calm,Calm,-,N/A,,Clear,0,2013-08-28 13:05:00
7:29 AM,48.2,48.2,100,30.31,2.5,Calm,Calm,-,N/A,,Clear,0,2013-08-28 13:29:00
7:36 AM,50.0,48.2,94,30.31,4.0,Calm,Calm,-,N/A,,Clear,0,2013-08-28 13:36:00
7:53 AM,52.0,51.1,97,30.04,5.0,Calm,Calm,-,N/A,,Clear,0,2013-08-28 13:53:00
8:53 AM,60.1,53.1,78,30.03,10.0,Calm,Calm,-,N/A,,Clear,0,2013-08-28 14:53:00
9:53 AM,68.0,52.0,56,30.01,10.0,Calm,Calm,-,N/A,,Clear,0,2013-08-28 15:53:00
10:53 AM,73.9,53.1,48,30.00,10.0,Calm,Calm,-,N/A,,Clear,0,2013-08-28 16:53:00
11:53 AM,77.0,46.0,33,29.99,10.0,Variable,4.6,-,N/A,,Partly Cloudy,0,2013-08-28 17:53:00
12:53 PM,80.1,44.1,28,29.96,10.0,NE,5.8,-,N/A,,Partly Cloudy,40,2013-08-28 18:53:00
1:53 PM,82.0,42.1,24,29.94,10.0,Variable,3.5,-,N/A,,Scattered Clouds,0,2013-08-28 19:53:00
2:53 PM,82.0,39.9,22,29.92,10.0,Calm,Calm,-,N/A,,Clear,0,2013-08-28 20:53:00
3:53 PM,81.0,39.0,22,29.92,10.0,Calm,Calm,-,N/A,,Partly Cloudy,0,2013-08-28 21:53:00
4:53 PM,82.0,41.0,23,29.91,10.0,SSW,8.1,-,N/A,,Scattered Clouds,210,2013-08-28 22:53:00
5:53 PM,80.1,48.0,32,29.92,10.0,NNW,9.2,-,N/A,,Scattered Clouds,330,2013-08-28 23:53:00
6:53 PM,79.0,46.9,32,29.92,10.0,North,4.6,-,N/A,,Clear,10,2013-08-29 00:53:00
7:53 PM,73.0,48.9,42,29.94,10.0,North,3.5,-,N/A,,Clear,350,2013-08-29 01:53:00
8:53 PM,70.0,48.9,47,29.95,10.0,Calm,Calm,-,N/A,,Clear,0,2013-08-29 02:53:00
9:53 PM,71.1,48.0,44,29.94,10.0,South,8.1,-,N/A,,Mostly Cloudy,190,2013-08-29 03:53:00
10:53 PM,69.1,48.0,47,29.95,10.0,South,5.8,-,N/A,,Mostly Cloudy,190,2013-08-29 04:53:00
11:53 PM,66.0,48.9,54,29.96,10.0,SSW,3.5,-,N/A,,Clear,200,2013-08-29 05:53:00